Probability
0 0 0 0 0 0 0 0 0 0 0 0 0 0 0 0 0 0 0 0 0 0 0 0 0 0 0 0 0 0 0 0 0 0 0 0 0 0 0 0 0 0 0
0 0 0 0 0 0 0 0 0 0 0 0 0 0 0 0 0 0 0 0 0 0 0 0 0 0 0 0 0 0 0 0 0 0 0 0 0 0 0 0 0 0 0
0 0 0 0 0 0 0 0 0 0 0 0 0 0 0 0 0 0 0 0 0 0 0 0 0 0 0 0 0 0 0 0 0 0 0 0 0 0 0 0 0 0 0
0 0 0 0 0 0 0 0 0 0 0 0 0 0 0 0 0 0 0 0 0 0 0 0 0 0 0 0 0 0 0 0 0 0 0 0 0 0 0 0 0 0 0
0 0 0 0 0 0 0 0 0 0 0 0 0 0 0 0 0 0 0 0 0 0 0 0 0 0 0 0 0 0 0 0 0 0 0 0 0 0 0 0 0 0 0
0 0 0 0 0 0 0 0 0 0 0 0 0 0 0 0 0 0 0 0 0 0 0 0 0 0 0 0 0 0 0 0 0 0 0 0 0 0 0 0 0 0 0
0 0 0 0 0 0 0 0 0 0 0 0 0 0 0 0 0 0 0 0 0 0 0 0 0 0 0 0 0 0 0 0 0 0 0 0 0 0 0 0 0 0 0
0 0 0 0 0 0 0 0 0 0 0 0 0 0 0 0 0 0 0 0 0 0 0 0 0 0 0 0 0 0 0 0 0 0 0 0 0 0 0 0 0 0 0
0 0 0 0 0 0 0 0 0 0 0 0 0 0 0 0 0 0 0 0 0 0 0 0 0 0 0 0 0 0 0 0 0 0 0 0 0 0 0 0 0 0 0
0 0 0 0 0 0 0 0 0 0 0 0 0 0 0 0 0 0 0 0 0 0 0 0 0 0 0 0 0 0 0 0 0 0 0 0 0 0 0 0 0 0 0
0 0 0 0 0 0 0 0 0 0 0 0 0 0 0 0 0 0 0 0 0 0 0 0 0 0 0 0 0 0 0 0 0 0 0 0 0 0 0 0 0 0 0
0 0 0 0 0 0 0 0 0 0 0 0 0 0 0 0 0 0 0 0 0 0 0 0 0 0 0 0 0 0 0 0 0 0 0 0 0 0 0 0 0 0 0
0 0 0 0 0 0 0 0 0 0 0 0 0 0 0 0 0 0 0 0 0 0 0 0 0 0 0 0 0 0 0 0 0 0 0 0 0 0 0 0 0 0 0
0 0 0 0 0 0 0 0 0 0 0 0 0 0 0 0 0 0 0 0 0 0 0 0 0 0 0 0 0 0 0 0 0 0 0 0 0 0 0 0 0 0 0
0 0 0 0 0 0 0 0 0 0 0 0 0 0 0 0 0 0 0 0 0 0 0 0 0 0 0 0 0 0 0 0 0 0 0 0 0 0 0 0 0 0 0
0 0 0 0 0 0 0 0 0 0 0 0 0 0 0 0 0 0 0 0 0 0 0 0 0 0 0 0 0 0 0 0 0 0 0 0 0 0 0 0 0 0 0
0 0 0 0 0 0 0 0 0 0 0 0 0 0 0 0 0 0 0 0 0 0 0 0 0 0 0 0 0 0 0 0 0 0 0 0 0 0 0 0 0 0 0
0 0 0 0 0 0 0 0 0 0 0 0 0 0 0 0 0 0 0 0 0 0 0 0 0 0 0 0 0 0 0 0 0 0 0 0 0 0 0 0 0 0 0
0 0 0 0 0 0 0 0 0 0 0 0 0 0 0 0 0 0 0 0 0 0 0 0 0 0 0 0 0 0 0 0 0 0 0 0 0 0 0 0 0 0 0
0 0 0 0 0 0 0 0 0 0 0 0 0 0 0 0 0 0 0 0 0 0 0 0 0 0 0 0 0 0 0 0 0 0 0 0 0 0 0 0 0 0 0
0 0 0 0 0 0 0 0 0 0 0 0 0 0 0 0 0 0 0 0 0 0 0 0 0 0 0 0 0 0 0 0 0 0 0 0 0 0 0 0 0 0 0
0 0 0 0 0 0 0 0 0 0 0 0 0 0 0 0 0 0 0 0 0 0 0 0 0 0 0 0 0 0 0 0 0 0 0 0 0 0 0 0 0 0 0
0 0 0 0 0 0 0 0 0 0 0 0 0 0 0 0 0 0 0 0 0 0 0 0 0 0 0 0 0 0 0 0 0 0 0 0 0 0 0 0 0 0 0
0 0 0 0 0 0 0 0 0 0 0 0 0 0 0 0 0 0 0 0 0 0 0 0 0 0 0 0 0 0 0 0 0 0 0 0 0 0 0 0 0 0 0
0 0 0 0 0 0 0 0 0 0 0 0 0 0 0 0 0 0 0 0 0 0 0 0 0 0 0 0 0 0 0 0 0 0 0 0 0 0 0 0 0 0 0
0 0 0 0 0 0 0 0 0 0 0 0 0 0 0 0 0 0 0 0 0 0 0 0 0 0 0 0 0 0 0 0 0 0 0 0 0 0 0 0 0 0 0
Wind_Speed
7 6 7 7 7 7 7 7 6 7 7 7 7 7 8 8 7 8 7 8 9 7 6 7 7 5 5 4 4 4 3 4 6 3 2 2 3 3 2 2 1 0 1
6 7 7 7 7 8 7 7 7 7 7 7 7 8 8 8 8 8 9 9 9 8 7 7 7 6 7 5 5 5 4 4 6 7 3 3 3 2 2 1 1 1 1
6 7 8 7 7 8 7 7 8 8 8 8 8 9 8 8 8 8 9 9 9 8 7 8 7 7 7 5 6 6 5 5 5 6 4 2 3 2 2 2 2 2 2
6 7 8 7 7 7 7 7 7 7 8 8 8 8 8 8 8 8 8 9 9 8 8 8 7 7 7 6 6 6 6 7 7 6 5 3 3 2 2 2 2 2 2
6 7 6 6 6 6 7 7 7 7 7 7 8 8 8 7 7 7 7 8 8 9 9 8 8 10 10 7 6 6 6 6 6 5 4 3 2 2 1 1 1 1 1
5 5 5 5 6 6 6 7 7 7 7 8 8 8 8 6 9 10 8 7 8 8 8 8 8 10 11 12 11 9 7 6 5 4 3 3 2 1 1 1 1 1 1
4 4 5 5 6 6 6 7 7 7 7 7 7 8 8 8 10 11 10 7 8 7 7 7 7 8 9 8 10 11 10 8 6 4 4 2 2 2 2 1 1 0 1
4 5 5 5 6 6 6 7 6 5 6 5 6 7 7 7 10 10 11 8 8 7 7 6 7 7 7 7 7 8 7 6 4 3 2 2 2 2 2 1 1 1 2
4 4 4 5 6 6 6 5 4 5 5 5 5 6 7 7 9 9 9 6 7 7 6 6 6 6 8 8 7 6 6 5 5 4 2 1 2 3 4 2 1 1 1
3 4 4 5 5 5 5 4 3 4 4 5 6 6 6 6 8 9 7 5 5 5 5 5 7 7 7 7 5 5 5 3 4 3 4 3 2 1 4 3 2 1 1
4 5 5 5 5 4 4 3 4 4 5 5 6 6 6 6 7 9 7 4 4 3 3 3 3 6 6 6 4 3 1 1 2 2 2 2 2 2 1 2 3 3 2
4 5 5 4 4 4 5 4 4 5 5 5 5 5 5 5 7 7 8 7 4 3 2 1 2 4 5 5 3 3 3 2 2 2 2 2 2 2 2 2 3 4 5
5 5 5 5 4 4 4 4 4 4 3 3 3 3 3 3 4 7 7 7 6 3 1 2 3 4 5 4 5 5 3 2 2 2 2 2 2 3 3 2 1 2 4
6 5 4 4 4 4 3 3 3 2 2 2 2 2 2 2 2 3 3 3 4 4 3 4 5 7 5 4 4 4 3 2 2 1 1 2 2 2 2 2 2 2 2
5 4 4 4 4 4 3 3 2 1 2 2 2 2 2 1 1 1 1 2 2 2 2 2 3 3 4 3 3 3 3 3 2 1 2 2 2 2 2 2 2 2 2
4 3 2 2 2 2 3 3 6 4 3 3 3 3 1 1 1 1 2 2 2 1 2 2 2 2 2 2 3 3 2 2 2 2 2 2 2 2 2 2 2 2 2
4 3 2 2 2 2 2 2 2 4 6 5 2 2 1 1 0 1 2 3 4 3 2 1 1 1 1 1 1 2 2 2 2 1 1 2 2 2 2 2 3 2 2
3 3 2 2 2 2 2 1 1 1 1 2 3 1 0 0 1 1 1 2 2 2 1 0 1 1 1 1 1 1 1 2 1 1 2 2 2 2 2 3 3 3 3
3 2 2 2 2 1 1 1 1 1 1 0 1 2 2 1 2 2 1 1 0 1 1 1 1 1 1 1 1 1 1 1 1 1 2 2 2 2 2 3 3 3 3
2 3 3 2 2 1 1 1 1 1 1 1 1 1 1 1 1 1 1 0 1 1 1 1 1 1 1 1 1 0 0 1 1 1 2 2 2 2 3 4 3 3 3
2 2 3 2 2 2 2 2 2 2 2 2 2 2 3 1 1 2 2 2 2 2 2 2 1 1 1 1 1 1 1 1 1 1 2 2 3 2 3 3 3 3 3
2 2 2 2 2 2 2 2 2 2 3 3 2 2 3 2 2 2 3 3 3 3 2 2 2 2 2 2 2 2 2 2 2 2 2 2 3 3 3 3 3 3 3
3 2 2 2 2 2 2 2 2 3 3 3 3 2 2 3 3 4 4 4 3 3 3 3 3 3 2 2 3 3 3 3 2 2 2 3 3 3 3 4 4 4 4
3 2 2 2 2 2 2 2 3 3 3 3 3 3 4 4 4 5 4 4 3 3 3 3 4 5 6 4 3 3 3 3 3 3 4 4 4 4 4 4 4 5 4
3 3 2 2 2 2 3 3 3 3 4 4 4 4 4 4 5 5 4 4 5 5 5 5 4 6 7 8 6 5 5 5 5 3 3 3 5 5 5 5 4 5 4
3 3 3 3 3 3 3 3 4 4 4 4 4 5 5 5 5 5 5 4 5 5 5 5 7 8 8 7 8 7 6 6 6 5 4 4 5 5 5 4 6 5 5
Wind_Direction
50 53 57 53 52 54 55 51 50 49 48 49 50 53 57 57 57 63 63 66 71 67 66 73 70 68 78 79 85 90 91 107 118 107 85 90 92 92 75 69 84 7 294
53 58 57 56 56 56 53 49 51 53 50 51 53 56 57 58 59 65 67 63 66 65 62 68 67 73 71 72 82 87 89 92 121 119 95 75 72 77 77 67 46 35 322
55 61 59 55 55 54 52 50 51 54 53 51 55 57 56 54 58 62 68 67 66 64 62 66 65 74 73 73 81 88 89 91 97 112 103 78 69 60 66 50 38 11 356
60 61 59 54 53 54 53 52 51 53 54 52 54 54 54 55 57 63 68 69 67 65 63 64 64 70 75 78 81 86 95 95 97 102 101 84 69 52 72 57 32 11 1
66 64 60 56 57 58 56 53 52 51 54 53 55 52 49 53 56 67 70 73 72 69 62 58 61 68 69 72 84 88 96 99 102 103 99 92 81 76 76 43 40 348 354
75 72 65 65 64 62 60 58 58 54 50 52 51 52 50 51 56 66 75 72 70 71 66 57 58 56 61 66 76 81 91 107 112 108 110 121 130 132 114 81 63 26 341
72 72 74 73 71 67 69 66 61 54 54 53 49 53 52 47 58 67 74 76 69 65 63 60 60 53 56 65 67 66 65 75 99 124 128 144 157 172 155 136 148 200 262
68 69 76 81 79 74 70 68 63 58 56 54 48 49 52 46 61 72 77 73 69 62 60 64 66 53 54 69 73 66 58 52 60 89 132 165 189 186 182 163 156 266 283
74 73 83 90 89 84 77 70 64 66 60 54 51 51 53 41 56 75 80 77 71 59 53 55 63 61 54 68 74 70 56 37 43 59 108 164 207 200 171 150 140 56 345
80 83 87 90 90 89 86 79 70 72 70 67 59 50 52 44 48 70 80 82 75 62 48 43 50 57 56 64 72 72 57 22 14 31 41 40 49 110 175 187 180 178 250
94 90 85 85 87 90 85 79 85 82 75 68 63 49 45 40 45 59 71 80 85 73 55 32 23 34 48 62 76 75 59 32 34 40 41 34 38 50 88 201 208 207 218
93 87 81 77 81 90 87 81 81 86 80 68 62 50 36 29 39 53 64 72 82 81 57 9 352 18 42 59 69 67 71 74 63 52 46 27 12 3 343 312 246 229 236
86 80 77 73 68 77 89 93 85 81 86 79 74 64 38 28 28 42 51 55 56 67 36 15 31 49 63 58 53 56 63 64 61 51 32 360 330 315 314 321 326 275 252
90 79 75 78 72 64 67 83 98 102 104 104 99 88 56 30 17 14 23 31 34 40 34 37 50 56 57 50 44 42 43 50 63 48 2 331 325 336 355 356 351 348 340
96 88 79 80 88 79 67 59 90 109 180 154 152 142 122 75 322 328 20 11 4 7 26 38 37 35 35 28 26 29 30 38 47 30 12 4 1 0 360 352 348 342 335
103 97 94 93 89 89 90 65 48 56 78 141 157 157 173 202 231 358 4 6 10 82 80 58 42 36 33 19 10 7 14 18 15 12 17 9 357 353 353 356 349 334 319
125 126 116 113 114 111 103 100 71 33 48 60 88 154 173 179 183 8 31 47 61 85 79 66 40 13 1 352 351 348 349 353 348 358 10 1 349 348 355 354 351 337 320
126 137 136 140 141 136 131 118 114 99 49 11 11 13 355 308 334 350 59 67 50 46 60 14 308 305 299 306 319 329 338 352 1 1 2 356 351 346 348 346 343 331 319
140 146 143 145 149 149 144 134 133 124 118 329 334 347 359 358 15 28 72 91 49 338 312 277 274 282 281 284 293 309 323 344 357 354 353 350 345 339 336 333 328 322 314
148 166 152 147 148 148 151 160 172 182 206 248 269 275 320 19 4 357 20 239 253 267 267 263 273 272 269 275 271 265 301 329 343 342 337 335 335 329 326 325 326 326 316
146 152 151 149 173 186 191 199 201 202 221 245 255 245 213 220 250 264 270 260 249 252 253 250 254 259 250 243 238 248 264 284 294 303 313 319 323 321 315 311 313 317 312
153 160 171 189 200 206 217 216 207 215 231 245 261 265 218 217 238 251 256 257 250 242 237 233 242 244 242 238 232 237 252 267 277 284 292 300 306 311 313 314 319 322 319
168 179 192 209 214 227 235 231 223 226 236 242 248 250 235 231 240 245 252 255 250 241 227 217 229 241 239 231 228 231 245 257 260 256 272 289 298 305 308 309 315 318 318
182 197 212 226 227 225 232 236 231 232 235 239 241 242 242 240 243 247 249 249 245 241 229 221 228 238 242 238 232 232 238 244 243 245 256 272 285 292 296 297 301 306 305
193 207 220 228 231 233 235 238 240 239 239 240 241 242 245 244 245 247 246 243 241 242 240 232 232 238 243 243 241 240 235 233 235 237 245 256 272 280 285 289 293 301 302
206 216 228 233 236 235 234 240 244 243 244 246 244 242 243 244 246 247 244 239 239 241 241 237 234 236 241 243 246 242 235 235 235 234 236 248 262 270 277 280 288 290 295